TimeEDT,TemperatureF,Dew PointF,Humidity,Sea Level PressureIn,VisibilityMPH,Wind Direction,Wind SpeedMPH,Gust SpeedMPH,PrecipitationIn,Events,Conditions,WindDirDegrees,DateUTC
12:06 AM,21.2,21.2,100,29.69,0.8,North,11.5,-,0.01,Snow,Light Snow,10,2013-03-20 04:06:00
12:53 AM,21.9,19.9,92,29.68,0.8,North,15.0,-,0.03,Snow,Snow,10,2013-03-20 04:53:00
1:53 AM,19.9,18.0,92,29.67,0.5,North,18.4,25.3,0.02,Snow,Snow,10,2013-03-20 05:53:00
2:53 AM,19.9,17.1,89,29.65,0.8,NNE,21.9,28.8,0.00,Snow,Snow,20,2013-03-20 06:53:00
3:17 AM,19.4,15.8,86,29.63,1.0,NNE,15.0,25.3,0.00,Snow,Snow,20,2013-03-20 07:17:00
3:51 AM,19.4,15.8,86,29.62,0.8,NNE,15.0,21.9,0.01,Snow,Snow,20,2013-03-20 07:51:00
3:53 AM,19.0,16.0,88,29.62,0.8,NNE,13.8,21.9,0.01,Snow,Snow,20,2013-03-20 07:53:00
4:10 AM,19.4,15.8,86,29.60,1.2,North,12.7,-,0.00,Snow,Snow,10,2013-03-20 08:10:00
4:31 AM,17.6,15.8,93,29.59,2.5,North,11.5,-,0.00,Snow,Light Snow,10,2013-03-20 08:31:00
4:38 AM,17.6,15.8,93,29.59,3.0,North,10.4,-,0.00,Snow,Light Snow,10,2013-03-20 08:38:00
4:53 AM,17.1,15.1,92,29.60,5.0,North,9.2,-,0.00,Snow,Light Snow,350,2013-03-20 08:53:00
5:53 AM,17.1,12.9,84,29.60,9.0,NNW,15.0,-,0.00,Snow,Light Snow,340,2013-03-20 09:53:00
6:53 AM,17.1,12.9,84,29.60,9.0,NNW,11.5,-,0.00,Snow,Light Snow,340,2013-03-20 10:53:00
7:01 AM,17.6,12.2,79,29.59,9.0,NNW,10.4,-,0.00,Snow,Light Snow,340,2013-03-20 11:01:00
7:45 AM,17.6,12.2,79,29.59,10.0,NW,11.5,-,0.00,,Mostly Cloudy,320,2013-03-20 11:45:00
7:53 AM,18.0,12.9,81,29.61,10.0,NW,11.5,-,0.00,,Mostly Cloudy,310,2013-03-20 11:53:00
8:53 AM,19.0,12.9,77,29.61,10.0,NW,10.4,-,0.00,Snow,Light Snow,320,2013-03-20 12:53:00
9:53 AM,21.0,14.0,74,29.60,10.0,NW,11.5,-,0.00,,Mostly Cloudy,320,2013-03-20 13:53:00
10:37 AM,23.0,15.8,74,29.58,3.0,West,8.1,-,0.00,Snow,Light Snow,260,2013-03-20 14:37:00
10:53 AM,23.0,17.1,78,29.59,2.5,Variable,5.8,-,0.00,Snow,Light Snow,0,2013-03-20 14:53:00
11:13 AM,24.8,17.6,74,29.57,3.0,Variable,6.9,-,0.00,Snow,Light Snow,0,2013-03-20 15:13:00
11:53 AM,26.1,18.0,71,29.57,3.0,WNW,10.4,-,0.00,Snow,Light Snow,300,2013-03-20 15:53:00
12:53 PM,28.0,19.0,69,29.56,10.0,West,11.5,17.3,0.00,,Overcast,280,2013-03-20 16:53:00
1:20 PM,28.4,17.6,64,29.55,10.0,West,13.8,25.3,N/A,,Overcast,280,2013-03-20 17:20:00
1:53 PM,30.0,19.0,64,29.55,10.0,West,12.7,21.9,N/A,,Overcast,260,2013-03-20 17:53:00
2:53 PM,32.0,17.6,55,29.54,10.0,WNW,15.0,20.7,N/A,,Mostly Cloudy,300,2013-03-20 18:53:00
3:53 PM,32.0,19.4,60,29.54,10.0,West,5.8,17.3,N/A,,Overcast,280,2013-03-20 19:53:00
4:53 PM,30.2,23.0,75,29.54,10.0,West,5.8,-,N/A,,Mostly Cloudy,260,2013-03-20 20:53:00
5:53 PM,30.2,21.2,69,29.57,5.0,WNW,10.4,16.1,N/A,Snow,Light Snow,290,2013-03-20 21:53:00
6:53 PM,28.4,21.2,74,29.60,10.0,West,3.5,-,N/A,,Mostly Cloudy,280,2013-03-20 22:53:00
7:53 PM,24.8,17.6,74,29.63,10.0,Calm,Calm,-,N/A,,Mostly Cloudy,0,2013-03-20 23:53:00
8:53 PM,26.6,17.6,69,29.64,10.0,SW,4.6,-,N/A,,Scattered Clouds,220,2013-03-21 00:53:00
9:53 PM,26.6,17.6,69,29.65,10.0,SSW,3.5,-,N/A,,Scattered Clouds,210,2013-03-21 01:53:00
10:53 PM,26.6,17.6,69,29.65,10.0,SSW,6.9,-,N/A,,Scattered Clouds,210,2013-03-21 02:53:00
11:53 PM,26.6,19.4,74,29.65,10.0,SSW,5.8,-,N/A,,Mostly Cloudy,210,2013-03-21 03:53:00